Regional Weather Roundup
Issued by NWS

Home | Current Version | Previous Version | Text Only | Print | Product List | Glossary On
Versions: 1 2 3 4 5 6 7 8 9 10 11 12 13 14 15 16 17 18 19 20 21 22 23 24 25 26 27 28 29 30 31 32 33 34 35 36 37 38 39 40 41 42 43 44 45 46 47 48 49 50
000
ASUS43 KFSD 220710
RWRSD

WEATHER ROUNDUP FOR SOUTH DAKOTA
NATIONAL WEATHER SERVICE SIOUX FALLS SD
200 AM CDT WED OCT 22 2014

NOTE: "FAIR" INDICATES FEW OR NO CLOUDS BELOW 12,000 FEET WITH NO
SIGNIFICANT WEATHER AND/OR OBSTRUCTIONS TO VISIBILITY.


SDZ001>005-009-010-012>017-220800-
NORTHWEST AND NORTH CENTRAL SOUTH DAKOTA

CITY           SKY/WX    TMP DP  RH WIND       PRES   REMARKS
BUFFALO          N/A     58  42  55 NW25G33   29.71R
FAITH            N/A     60  49  66 SW9       29.74R
MOBRIDGE       PTCLDY    65  50  58 S17       29.69S
$$

SDZ012>016-024>037-041>051-057-063-072>074-220800-
SOUTHWEST AND SOUTH CENTRAL SOUTH DAKOTA

CITY           SKY/WX    TMP DP  RH WIND       PRES   REMARKS
RAPID CTY ARPT CLOUDY    62  42  47 N5        29.78R
PIERRE         PTCLDY    62  51  67 SE14      29.76F
CUSTER         MOCLDY    54  34  46 W7        29.92R
ELLSWORTH AFB  CLOUDY    64  40  41 N14       29.79R
PHILIP         CLOUDY    67  50  54 SW9       29.75R
PINE RIDGE     CLOUDY    61  47  59 W3        29.84R
SPEARFISH      FAIR      59  41  51 NW15      29.85S
WINNER         FAIR      65  53  65 S20G30    29.81F
$$

SDZ004>011-016>023-039-040-220800-
NORTHEAST SOUTH DAKOTA

CITY           SKY/WX    TMP DP  RH WIND       PRES   REMARKS
ABERDEEN       CLEAR     62  41  46 S22G31    29.83F
WATERTOWN      CLEAR     54  42  64 S16G28    29.94S
SISSETON         N/A     50  42  74 S13       29.92S
$$

SDZ017-020-022-023-036>040-048>070-220800-
SOUTHEAST SOUTH DAKOTA

CITY           SKY/WX    TMP DP  RH WIND       PRES   REMARKS
SIOUX FALLS    CLEAR     54  43  66 SE17      30.01S
HURON          CLEAR     59  39  47 SE18G29   29.88S
CHAMBERLAIN    CLEAR     61  46  57 SE15G21   29.84S
MITCHELL       CLEAR     60  39  45 SE20      29.91F
YANKTON        CLEAR     57  39  51 SE13      29.98S
$$

ABBREVIATIONS USED IN REMARKS
   TC - TEMPERATURE IN CELSIUS
  WCI - WIND CHILL INDEX
   HX - HEAT INDEX
  VSB - VISIBILITY




USA.gov is the U.S. government's official web portal to all federal, state and local government web resources and services.